{"data":{"norad_id":59346,"intl_designator":"2024-059A","name":"EUTELSAT 36D","alt_names":[],"object_type":"PAYLOAD","status":"ACTIVE","operator":null,"country":"EUTE","launch_date":"2024-03-30","launch_site_code":"AFETR","launch_vehicle":null,"mission":null,"orbit_class":"UNKNOWN","rcs_meters":null,"size_class":null,"mass_kg":null,"dimensions":null,"purposes":["comms"],"wikipedia_slug":null,"has_3d_model":false,"image_url":null,"decayed_at":null,"tle_current":{"epoch":"2026-09-19T05:10:05.666304Z","epoch_age_seconds":129301,"freshness":"FRESH","line1":"1 59346U 24059A   26262.21534336  .00000151  00000+0  00000+0 0  9997","line2":"2 59346   0.0115 159.8428 0000130 315.2085 356.4780  1.00273241  9092","mean_motion":1.00273241,"eccentricity":1.3e-5,"inclination_deg":0.0115,"raan_deg":159.8428,"arg_perigee_deg":315.2085,"mean_anomaly_deg":356.478,"bstar":0,"rev_number":909,"period_min":1436.0760514363,"perigee_km":35785.638660266,"apogee_km":35786.734932685,"semimajor_km":42164.323796475,"source":"CELESTRAK","updated_at":"2026-09-20T09:00:35.336965Z"}}}